Location: *
(48.7358°N, 0.3111°E)
Time: 18:10:26
(UTC+00:00)

Cosmos 2322 Rocket - Pass Details

Date: 22 October 2019
Orbit: 833 x 850 km, 71.0° (Epoch: 21 November)

Event Time Altitude Azimuth Distance (km) Brightness Sun altitude
Exits shadow 02:49:30 18° 2° (N) 1,933 4.3 -36.0°
Drops below altitude 10° 02:51:13 10° 14° (NNE) 2,455 5.0 -35.7°
Sets 02:53:57 0° 25° (NNE) 3,394 6.0 -35.3°
